Regional Weather Roundup
Issued by NWS

Home | Current Version | Previous Version | Graphics & Text | Print | Product List | Glossary On
Versions: 1 2 3 4 5 6 7 8 9 10 11 12 13 14 15 16 17 18 19 20 21 22 23 24 25 26 27 28 29 30 31 32 33 34 35 36 37 38 39 40 41 42 43 44 45 46 47 48 49 50
000
ASUS43 KDMX 290306
RWRIA

WEATHER ROUNDUP FOR IOWA
NATIONAL WEATHER SERVICE DES MOINES IA
1000 PM CDT SUN MAY 28 2017

NOTE: "FAIR" INDICATES FEW OR NO CLOUDS BELOW 12,000 FEET WITH NO
SIGNIFICANT WEATHER AND/OR OBSTRUCTIONS TO VISIBILITY.

* - THESE STATIONS ARE NOT NWS STATIONS...THUS NOT UNDER NWS
QUALITY CONTROL.  THEY ALSO DO NOT REPORT WEATHER SUCH
AS PRECIPITATION OR FOG.

IAZ001>003-012>014-020>022-031>034-043>046-290400-
   NORTHWEST IOWA

CITY           SKY/WX    TMP DP  RH WIND       PRES   REMARKS
CARROLL *      PTCLDY    64  45  48 W8        29.86S
CHEROKEE *     CLOUDY    60  45  58 N10       29.88R
DENISON *      CLEAR     61  43  51 CALM      29.89S
LE MARS *      CLOUDY    61  46  59 NE12G17   29.89R
ORANGE CITY *  CLOUDY    61  46  59 E5        29.88S
SHELDON *      MOCLDY    57  46  67 NE8       29.85S
SIOUX CITY     PTCLDY    66  41  40 W8        29.86S
SPENCER        CLOUDY    57  50  77 N9        29.87F
STORM LAKE *   CLOUDY    63  45  51 N12G20    29.88R
$$

IAZ055>058-069>071-079>083-090>094-290400-
   SOUTHWEST IOWA

CITY           SKY/WX    TMP DP  RH WIND       PRES   REMARKS
ATLANTIC *     CLEAR     61  48  63 S5        29.89R
AUDUBON *      CLEAR     61  46  59 W3        29.89S
CLARINDA *     CLEAR     61  46  59 CALM      29.92S
COUNCIL BLFS * CLEAR     64  43  45 CALM      29.90S
CRESTON *      CLEAR     63  45  51 W3        29.91S
HARLAN  *      CLEAR     63  45  51 W8        29.92S
LAMONI         CLEAR     63  45  51 NW8       29.89R
RED OAK *      CLEAR     59  48  67 CALM      29.90S
SHENANDOAH *   CLEAR     63  50  63 S3        29.91S
$$

IAZ047>049-059>061-072>074-084-290400-
   CENTRAL IOWA

CITY           SKY/WX    TMP DP  RH WIND       PRES   REMARKS
AMES           CLEAR     61  48  62 W9        29.83S
ANKENY *       CLEAR     66  43  42 W5        29.85S
BOONE *        CLEAR     66 N/A N/A W6        29.84R
CHARITON *     CLEAR     63  46  55 W8        29.87R
DES MOINES     PTCLDY    66  42  41 W7        29.85R
GRINNELL*      CLEAR     63  45  51 W6        29.84S
KNOXVILLE *    CLEAR     66  43  42 NW7       29.84R
MARSHALLTOWN   CLEAR     63  45  51 W8        29.81R
NEWTON *       CLEAR     64  45  48 W6        29.83R
PELLA *        CLEAR     66  42  40 W7        29.85R
PERRY *          N/A     63  45  52 W10       29.86R
$$

IAZ004>006-015-016-023>025-035-036-290400-
   NORTH CENTRAL IOWA

CITY           SKY/WX    TMP DP  RH WIND       PRES   REMARKS
ALGONA *       CLOUDY    64  41  42 NW20G32   29.86R
CLARION *      CLEAR     64  39  39 NW8       29.83R
ESTHERVILLE    CLOUDY    56  50  80 W7        29.84F
FORT DODGE *   CLOUDY    63  39  42 W13G30    29.86R
MASON CITY     PTCLDY    61  40  45 W12       29.82R
FOREST CITY *    N/A     66  23  19 NW25G36   29.83R
WEBSTER CITY * PTCLDY    64  39  39 W10       29.82R
IOWA FALLS *     N/A     63  43  49 W8        29.83R
$$

IAZ007>011-017>019-026>030-037>042-050>054-066-290400-
   NORTHEAST IOWA

CITY           SKY/WX    TMP DP  RH WIND       PRES   REMARKS
CEDAR RAPIDS   CLEAR     62  47  57 W9        29.80R
CHARLES CITY * CLEAR     64  39  39 W9        29.80R
CLINTON *      PTCLDY    65  54  67 W3        29.78R
DECORAH *      CLEAR     64  43  45 CALM      29.75S
DUBUQUE        CLEAR     60  50  69 CALM      29.78R
MONTICELLO *   PTCLDY    61  52  72 CALM      29.78R
OELWEIN *      CLEAR     61  45  55 W9        29.79R
WATERLOO       CLEAR     62  43  49 W7        29.78R
$$

IAZ064-065-067-068-078-290400-
   EAST CENTRAL IOWA

CITY           SKY/WX    TMP DP  RH WIND       PRES   REMARKS
DAVENPORT      PTCLDY    65  52  62 SW3       29.78S
IOWA CITY      CLEAR     66  52  60 W8        29.81R
MT. PLEASANT * MOCLDY    67  48  51 W7        29.82R
MUSCATINE *    CLOUDY    68  52  56 W9        29.80R
QUAD CITIES    MOCLDY    68  49  50 CALM      29.77S
$$

IAZ062-063-075>077-085>089-095>099-290400-
   SOUTHEAST IOWA

CITY           SKY/WX    TMP DP  RH WIND       PRES   REMARKS
BURLINGTON     CLEAR     66  52  60 SW6       29.81R
FAIRFIELD *    CLEAR     66  50  55 W7        29.82R
FORT MADISON * PTCLDY    70  48  46 W3        29.83R
KEOKUK *       MOCLDY    66  52  59 SW6       29.82R
OSKALOOSA *      N/A     63  47  57 W9        29.84R
CENTERVILLE *    N/A     64  50  59 CALM      29.88R
OTTUMWA        CLEAR     62  50  64 W6        29.83R
WASHINGTON *   PTCLDY    66  52  59 W7        29.82R
$$

ABBREVIATIONS USED IN REMARKS
   TC - TEMPERATURES IN CELSIUS
  WCI - WIND CHILL INDEX
   HX - HEAT INDEX
  VSB - VISIBILITY
$$





USA.gov is the U.S. government's official web portal to all federal, state and local government web resources and services.